Regional Weather Roundup
Issued by NWS New Orleans/Baton Rouge, LA

Home | Current Version | Previous Version | Graphics & Text | Print | Product List | Glossary On
Versions: 1 2 3 4 5 6 7 8 9 10 11 12 13 14 15 16 17 18 19 20 21 22 23 24 25 26 27 28 29 30 31 32 33 34 35 36 37 38 39 40 41 42 43 44 45 46 47 48 49 50
928
ASUS44 KLIX 181507
RWRLIX
NEW ORLEANS REGIONAL WEATHER ROUNDUP
NATIONAL WEATHER SERVICE NEW ORLEANS LA
1000 AM CDT SAT APR 18 2015

NOTE: "FAIR" INDICATES FEW OR NO CLOUDS BELOW 12,000 FEET WITH NO
      SIGNIFICANT WEATHER AND/OR OBSTRUCTIONS TO VISIBILITY.
      SKY/WX - SKY CONDITION AND SIGNIFICANT WEATHER.
      TMP - AIR TEMPERATURE.     DP    - DEWPOINT TEMPERATURE.
      RH  - RELATIVE HUMIDITY.   PRES  - PRESSURE.
      HI  - HEAT INDEX.          WCI   - WIND CHILL INDEX.

*  THESE STATIONS ARE NOT NWS OR FAA STATIONS AND ARE NOT UNDER
   NWS QUALITY CONTROL.

LAZ038-040-048-061>063-065>067-069-181600-
SOUTHEAST LOUISIANA

CITY           SKY/WX    TMP DP  RH WIND       PRES   REMARKS
N.O. AUDUBON   NOT AVBL
N.O. INTL ARPT LGT RAIN  71  67  87 SE6       29.98F FOG
N.O. LAKEFRONT LGT RAIN  73  68  84 SW6       29.99F
SLIDELL        LGT RAIN  70  70 100 S5        29.98R FOG
BATON ROUGE    LGT RAIN  70  68  93 SE10      29.89F
BOOTHVILLE     LGT RAIN  70  68  93 N7        29.98R FOG
BELLE CHASSE   TSTM      70  68  93 CALM      29.99R
BOGALUSA*      LGT RAIN  71  67  88 S8        29.98R
GALLIANO*      CLOUDY    67  66  97 N3        29.98F
NEW ROADS*     CLOUDY    69  68  95 SE5       29.92R
GONZALES*      LGT RAIN  70  70 100 SE7       29.90F
HAMMOND*       LGT RAIN  70  68  94 SE10      29.96F
HOUMA*         RAIN      66  66 100 E9        29.95S
PORT FOURCHON* FOG       70  68  94 N20       30.01R VSB 1/2

$$

MSZ070-080>082-181600-
SOUTHERN MISSISSIPPI

CITY           SKY/WX    TMP DP  RH WIND       PRES   REMARKS
MCCOMB         CLOUDY    68  67  96 SE9       29.93F
GULFPORT       LGT RAIN  69  68  96 SE3       29.99R
BILOXI         LGT RAIN  69  69 100 VRB1      29.99R
PASCAGOULA     LGT RAIN  69  68  96 CALM      30.00R
STENNIS ARPT*  RAIN      70  66  88 MISG      30.01R

$$

COASTAL OBSERVATIONS
LAKE AND NEARSHORE STATIONS

STATION/POSITION TIME  TEMP    WIND        PRES    WAVE
                       AIR SEA DIR/SP/G            HT/PER
                 (UTC) (F)     (DEG/KT/KT) (MB)    (FT/S)
PASCAGOULA       1400   70      90/  3/  6 1014.9
WAVELAND YACHT   1400   69 73  120/  3/  4 1014.9
GRAND ISLE       1400   73 76   20/  7/ 10 1014.6
SOUTHWEST PASS   1400   69 63   70/ 12/ 13 1014.2
NEW CANAL        1400   71     230/  3/  4 1016.0
SHELL BEACH      1400   73 75  280/  3/  4 1015.1

OFFSHORE STATIONS

STATION/POSITION TIME  TEMP    WIND        PRES    WAVE
                       AIR SEA DIR/SP/G            HT/PER
                 (UTC) (F)     (DEG/KT/KT) (MB)    (FT/S)
64 S DAUPHIN ISL 1450   72 75   40/ 10/ 12 1014.5    2/ 5

$$




USA.gov is the U.S. government's official web portal to all federal, state and local government web resources and services.